Weather WX

World > North America > United States > Mississippi

Tula, Mississippi Regional Weather

Lat: 34.23N, Lon: 89.37W
Wx Zone: MSZ013
Feedback

Tula, MS Regional Weather

Expires:201906260200;;079982
ASUS44 KJAN 260110
RWRMS 

MISSISSIPPI HOURLY WEATHER ROUNDUP
NATIONAL WEATHER SERVICE JACKSON MS
800 PM CDT TUE JUN 25 2019

NOTE: "FAIR: INDICATES FEW OR NO CLOUDS BELOW 12,000 FEET WITH NO
SIGNIFICANT WEATHER AND/OR OBSTRUCTIONS TO VISIBILITY.


MSZ001>002-007>008-010>013-018>021-025>028-034>036-260200-
NORTHWEST MISSISSIPPI
  
CITY           SKY/WX    TMP DP  RH WIND       PRES   REMARKS
BATESVILLE     FAIR      82  73  74 SW8       30.07R                  
CLARKSDALE     CLEAR     81  68  65 S7        30.06R                  
CLEVELAND      FAIR      75  72  89 W3        30.07R                  
GREENWOOD      FAIR      76  69  79 S7        30.09R                  
GREENVILLE       N/A    N/A N/A N/A MISG      30.07R                  
OLIVE BRANCH   CLOUDY    79  72  78 S6        30.06R                  
OXFORD         FAIR      81  73  78 SW3       30.09R                  
TUNICA         LGT RAIN  72  64  78 SW8       30.06R                  
WINONA         FAIR      78  68  72 CALM      30.10R                  
$$


SKY/WX - Weather  TMP - Temperature  DP - Dew Point  RH - Relative Humidity
WIND - Wind Direction/Speed PRES - Barometric Pressure VSB - Visibility
WCI - Wind Chill Index E13G22 Wind - East Wind 13 mph/Gusts of 22 mph